User: anonymous   Login
Location: Unspecified
(0.0000°N, 0.0000°E)
Time: 16:23:43
(UTC+00:00)
Language:

Kosmos-1745 - Orbit

View from above orbital plane
View from above orbital plane
View from above satellite
View from above satellite

Ground track
Ground track

The orbit data is extracted from the following two-line orbital elements,

1 16727U 86037A   18112.55039235  .00000016  00000-0  10308-5 0  9996
2 16727  82.9560 143.6555 0030288 220.8709 292.0246 13.74183863600457
Epoch (UTC): 22 April 2018 13:12:33
Eccentricity: 0.0030288
inclination: 82.9560°
perigee height: 962 km
apogee height: 1007 km
right ascension of ascending node: 143.6555°
argument of perigee: 220.8709°
revolutions per day: 13.74183863
mean anomaly at epoch: 292.0246°
orbit number at epoch: 60045

The dashed part of the orbit path shows where the satellite is in the earth's shadow,  

DLR